Regional Weather Roundup
Issued by NWS Charleston, SC

Current Version | Previous Version | Graphics & Text | Print | Product List | Glossary On
Versions: 1 2 3 4 5 6 7 8 9 10 11 12 13 14 15 16 17 18 19 20 21 22 23 24 25 26 27 28 29 30 31 32 33 34 35 36 37 38 39 40 41 42 43 44 45 46 47 48 49 50
000 ASUS42 KCHS 192227 RWRCHS Regional Weather Roundup National Weather Service Charleston SC 600 PM EDT THU APR 19 2018 NOTE: "fair" indicates few or no clouds below 12,000 feet with no significant weather and/or obstructions to visibility. Not all stations are quality controlled. Use data with caution, especially dewpoint observations. SCZ027-030-031-034>040-042>050-192300- ...Southeast South Carolina... CITY SKY/WX TMP DP RH WIND PRES REMARKS N Charleston FAIR 83 53 35 W21G26 29.91R Waterfront Prk N/A 82 56 40 W8G16 29.75R Mount Pleasant FAIR 81 54 39 W10G23 29.91R Johns Island FAIR 82 57 42 W14 29.92R Pinopolis N/A 77 55 47 W16 29.82S Moncks Corner FAIR 81 43 26 W3 29.91R Summerville FAIR 81 46 30 W9G17 29.93R Beaufort MCAS FAIR 83 57 41 W14G24 29.93R Beaufort Arpt FAIR 81 55 41 W15G22 29.93R Hilton Head Is MOSUNNY 82 55 39 W13G23 29.94R Walterboro FAIR 81 45 28 W17 29.94R Allendale FAIR 79 43 27 VRB6G13 29.95R ...Southern Midlands and Pee Dee... CITY SKY/WX TMP DP RH WIND PRES REMARKS Georgetown FAIR 81 45 28 W12G23 29.90R Kingstree FAIR 79 30 17 W15G24 29.91R Orangeburg FAIR 79 36 21 W18G28 29.94R Barnwell FAIR 77 37 24 W13G20 29.97R Aiken FAIR 72 37 28 W16G22 30.03R Manning FAIR 75 32 20 NW8G22 29.93R Columbia FAIR 79 40 24 W21 29.94R Sumter FAIR 79 38 22 W14G24 29.90R Florence FAIR 77 41 27 N20G30 29.91R Myrtle Beach FAIR 82 42 24 W18G28 29.89R N Myrtle Beach FAIR 82 44 26 W15G26 29.86R $$ GAZ063-065-086>088-099>101-113>116-118-119-134>141-150-192300- ...Southeast Georgia... CITY SKY/WX TMP DP RH WIND PRES REMARKS Savannah Arpt FAIR 83 56 39 W24G30 29.95R Hunter AAF FAIR 83 55 38 W16 29.92S Fort Stewart FAIR 83 56 38 W18 29.94R Statesboro FAIR 82 42 23 NW13G21 29.96R Sylvania FAIR 81 54 39 NW10G22 29.96R Claxton FAIR 82 58 43 SW12G17 29.96R ...CSRA, Central and far Southeast Georgia... CITY SKY/WX TMP DP RH WIND PRES REMARKS Thomson FAIR 71 38 30 N17 30.08R Augusta-Bush FAIR 77 40 26 W14G23 29.98R Augusta-Daniel FAIR 75 38 26 W12G21 30.00R Swainsboro FAIR 79 46 31 NW14G20 29.99R Vidalia FAIR 81 54 39 W15 29.98R Eastman FAIR 81 20 10 W14G20 30.02R Hazlehurst FAIR 83 51 32 W6 29.97S Alma FAIR 83 57 41 W10G22 29.98R Waycross FAIR 83 53 35 NW15G22 29.98S Jesup NOT AVBL Baxley PTSUNNY 79 55 44 W12G18 29.98R Brunswick FAIR 82 55 39 NW12 29.96S Saint Simons FAIR 84 59 42 W13G20 29.95S $$ SCZ027-028-034-036>038-045-046-048>050-GAZ119-141-192300- ...Lake and Supplemental Coastal Observations... STATION/POSITION TIME TEMP WIND PRES WAVE SWELL AIR SEA DIR/SP/G HT/PER HT/PER/DIR (UTC) (F) (DEG/KT/KT) (MB) (FT/S) (FT/S/D) Winyah Bay 2145 81 280/ 11 1012.0R Lake Murray 2120 75 280/ 12/ 16 1013.2 ACE Basin NERRS 2145 82 350/ 5 N/A Fort Pulaski 2200 80 67 280/ 16/ 20 1014.1 Sapelo Island 2200 84 280/ 15 1014.0 $$ ANZ835-935-AMZ111-154-330-350-352-354-370-450-454-472-192300- ...C-MAN and Buoy Observations... STATION/POSITION TIME TEMP WIND PRES WAVE SWELL AIR SEA DIR/SP/G HT/PER HT/PER/DIR (UTC) (F) (DEG/KT/KT) (MB) (FT/S) (FT/S/D) Buoy 41004 2210 69 67 220/ 19/ 21 1013.3 Buoy 41008 2150 70 66 200/ 8/ 10 1014.1S 3/ 5 2/150/ 5 Folly Beach CMAN 2200 68 210/ 15/ 18 1013.7R Capers Nearshore 2208 67 64 240/ 16/ 21 1013.0R Fripp Nearshore 2208 73 65 280/ 10/ 16 1013.3R STATION/POSITION TIME TEMP WIND PRES WAVE SWELL AIR SEA DIR/SP/G HT/PER HT/PER/DIR (UTC) (F) (DEG/KT/KT) (MB) (FT/S) (FT/S/D) 5E St. Marys GA 2200 67 N/A 2/ 5 Frying Pan Buoy 2210 68 65 220/ 19/ 25 1012.0 Buoy 41025 2210 68 250/ 19/ 25 1010.4 Cape Lookout NC 2200 230/ 14/ 21 1010.4R Buoy 41002 2210 73 71 220/ 19/ 23 1015.0 Buoy 41010 2210 75 74 240/ 10/ 12 1018.4 St Augustine FL 2200 82 69 230/ 15/ 18 1016.5F $$

USA.gov is the U.S. government's official web portal to all federal, state and local government web resources and services.